Temperature
14 14 15 15 12 10 12 13 15 16 16 18 18 18 16 16 17 17 16 16 16 16 16 16 16 16 16 16 16 16 16 16 16 16 16 16 15 15 15 15 15 15 15 15 15 15 15 15 15
13 14 14 14 11 11 12 13 14 16 17 18 18 17 16 15 15 15 15 15 16 16 16 16 16 16 16 16 16 16 16 16 16 16 15 15 15 15 15 15 15 15 15 15 15 15 15 15 15
13 14 14 10 10 11 13 14 14 16 17 17 16 16 15 15 15 15 15 15 15 15 15 15 16 16 16 16 16 16 16 16 16 15 15 15 15 15 15 15 15 15 15 15 15 15 15 15 15
13 13 13 10 11 12 13 13 14 15 16 16 15 14 14 14 14 15 15 15 15 15 15 15 15 16 16 16 16 16 16 15 15 15 15 15 15 15 15 15 15 15 15 15 15 15 15 14 14
13 12 10 10 11 12 12 14 14 14 14 15 14 13 13 14 14 15 15 15 15 15 15 15 15 15 15 15 15 15 15 15 15 15 15 15 15 15 15 15 15 15 15 15 15 15 14 14 14
12 10 9 10 11 12 12 14 14 13 14 14 13 12 13 13 14 14 14 14 14 15 14 15 15 15 15 15 15 15 15 15 15 15 15 15 15 15 15 15 15 15 15 15 15 14 14 14 14
11 8 9 10 11 11 12 14 13 12 13 14 14 12 12 13 13 14 14 14 14 14 14 14 15 15 15 15 15 15 15 15 15 15 15 14 15 15 14 15 15 15 15 15 14 14 14 14 14
11 8 9 9 10 11 12 13 13 13 13 14 14 12 12 13 13 13 13 13 14 14 14 14 14 14 15 14 14 15 15 15 15 15 14 14 14 14 14 14 14 14 14 14 14 14 14 14 13
11 8 8 10 11 11 12 12 12 13 13 13 13 13 13 13 13 13 13 13 13 13 13 13 14 14 14 14 14 14 14 14 14 14 14 14 14 14 14 14 14 14 14 14 14 14 14 13 13
10 7 9 11 11 11 11 11 12 12 12 12 12 13 13 12 13 13 13 13 13 13 13 13 13 14 14 14 14 14 14 14 14 14 14 14 14 14 14 14 14 14 14 13 13 13 13 13 13
9 8 10 11 11 11 11 11 12 11 10 11 12 12 12 12 12 12 12 13 13 13 13 13 13 13 14 14 14 14 14 14 14 14 14 14 14 14 14 14 13 13 13 13 13 13 13 13 13
9 10 10 11 11 11 11 11 11 11 11 12 13 12 12 12 12 12 12 12 12 12 12 12 13 13 13 13 13 14 13 13 13 13 13 13 13 13 13 13 13 13 13 13 13 13 13 12 12
9 9 11 11 11 11 11 11 11 11 12 12 12 12 12 12 12 12 12 12 12 12 12 12 12 13 13 13 13 13 13 13 13 13 13 13 13 13 13 13 13 13 13 13 12 12 12 12 12
10 10 10 11 11 11 11 10 10 11 12 12 12 12 11 12 12 12 12 12 12 12 12 12 12 12 12 13 13 13 13 13 13 13 13 13 13 13 13 13 12 12 12 12 12 12 12 12 12
10 9 9 10 10 11 11 10 10 11 11 11 11 11 11 11 11 11 12 12 12 12 12 12 12 12 12 12 12 12 12 12 12 12 12 12 12 12 12 12 12 12 12 12 12 12 11 11 11
9 8 8 9 10 10 10 9 10 11 11 10 11 11 11 11 11 11 11 11 11 11 11 11 11 11 11 12 12 12 12 12 12 12 12 12 12 12 12 12 12 12 11 11 11 11 11 11 11
7 7 8 9 10 10 9 9 10 11 11 10 11 11 11 11 11 11 11 11 11 11 11 11 11 11 11 11 11 11 11 11 11 11 11 11 11 11 11 11 11 11 11 11 11 11 11 11 11
7 8 8 9 9 9 9 9 10 11 10 10 10 11 11 11 11 11 11 11 11 11 11 11 11 11 11 11 11 11 11 11 11 11 11 11 11 11 11 11 11 11 11 11 11 11 11 11 10
8 8 8 9 10 9 9 9 10 10 10 10 10 10 10 11 11 11 10 10 10 10 10 10 10 10 11 11 11 11 11 11 11 11 11 11 10 11 11 11 11 11 11 11 10 10 10 10 10
8 8 8 8 9 9 8 9 9 9 10 10 10 10 10 10 10 10 10 10 10 10 10 10 10 10 10 11 10 10 10 10 10 10 10 10 10 10 10 10 10 10 10 10 10 10 10 10 10
8 8 8 8 8 9 9 8 9 9 10 10 10 10 10 10 10 10 10 10 10 10 10 10 10 10 10 10 10 10 10 10 10 10 10 10 10 10 10 10 10 10 10 10 10 10 10 10 9
8 9 9 8 7 7 8 7 9 9 9 9 9 10 10 10 10 10 10 10 10 10 10 10 9 10 10 9 10 10 10 10 10 10 10 9 9 9 9 9 9 9 9 9 9 9 9 9 9
8 9 8 8 7 7 7 7 8 8 9 9 9 10 10 10 10 10 10 10 10 10 10 10 9 9 9 9 9 9 9 9 9 9 9 9 9 9 9 9 9 9 9 9 9 9 9 9 8
9 8 8 7 7 8 8 7 8 8 9 9 9 10 10 10 10 10 10 10 10 9 9 9 9 9 9 9 9 9 9 9 9 9 9 9 9 9 9 9 9 9 9 9 8 8 8 8 8
8 7 7 7 6 7 7 7 7 9 9 9 9 10 10 10 10 10 10 10 9 9 9 9 9 9 9 9 9 9 9 9 9 8 8 8 8 9 8 8 8 8 8 8 8 8 8 8 7
8 7 7 7 7 6 7 7 8 9 9 10 10 10 10 10 10 10 10 10 9 9 9 9 9 9 9 9 9 8 8 8 8 8 8 8 8 8 8 8 8 8 8 8 8 7 7 7 7
8 7 7 6 6 6 7 7 8 10 9 9 9 10 10 10 10 10 10 10 10 9 9 9 9 9 9 8 8 8 8 8 8 8 8 8 8 8 8 7 7 7 7 7 7 7 7 7 7
8 7 6 6 7 8 8 7 8 9 9 8 8 9 9 10 10 10 10 10 10 10 9 9 9 9 9 8 8 8 8 8 8 7 7 7 7 7 7 7 7 7 7 7 7 7 6 6 6
8 8 7 6 6 7 7 8 8 9 8 8 8 9 9 10 10 10 10 10 10 9 9 9 8 8 8 8 8 8 8 7 7 7 7 7 7 7 7 7 7 7 7 6 6 6 6 6 6
8 8 7 7 7 6 6 7 9 8 8 8 8 9 10 10 10 10 10 10 9 9 9 9 8 8 8 8 8 7 7 7 7 7 7 7 7 7 7 6 6 6 6 6 6 6 6 5 5
Wind_Speed
15 13 3 4 5 3 3 5 3 2 2 2 1 2 4 3 3 4 3 6 9 10 12 14 14 14 14 14 14 13 12 12 12 11 11 10 10 10 9 9 9 8 8 8 8 8 8 8 8
10 4 5 5 4 2 5 5 5 5 4 1 2 2 4 2 2 5 3 5 9 10 12 14 15 14 14 14 14 13 12 12 11 11 10 10 10 9 9 9 8 8 8 8 8 8 7 7 6
7 2 4 4 4 6 5 4 5 5 4 1 2 3 2 3 2 3 3 8 9 8 11 14 15 14 13 14 14 13 12 12 11 11 10 10 10 9 9 8 8 8 8 8 8 8 7 7 6
4 4 4 2 5 5 4 4 3 3 3 3 2 3 2 1 1 3 7 9 9 7 10 13 14 14 14 13 14 13 12 12 11 10 10 10 9 9 9 8 8 8 8 8 7 7 6 6 6
4 4 3 1 5 4 3 5 4 2 2 2 2 2 1 3 3 8 8 9 10 7 8 12 14 14 13 13 13 13 12 12 11 10 10 9 9 9 9 9 8 8 8 8 7 6 6 6 6
4 3 2 4 5 4 4 4 2 2 2 2 2 2 1 0 4 6 8 7 8 8 8 10 13 13 13 13 12 12 12 11 10 10 9 9 9 9 9 8 8 8 7 7 7 6 5 5 6
4 3 3 3 3 3 4 4 1 3 2 2 2 3 2 1 2 5 7 7 6 7 7 7 10 12 12 12 12 11 11 10 10 9 9 9 9 8 8 8 8 7 6 6 6 5 5 5 5
4 3 1 2 3 4 3 3 2 2 3 1 2 4 4 4 3 5 7 7 6 5 6 6 7 9 10 11 12 11 10 9 9 8 8 8 8 8 8 7 7 6 6 5 5 5 4 4 4
3 3 3 4 3 4 3 3 4 3 1 1 1 3 4 6 6 7 6 6 4 4 4 5 5 7 9 9 10 10 9 8 7 7 8 8 7 6 6 6 6 5 5 5 5 4 4 4 5
3 3 5 4 3 4 5 4 4 3 4 3 3 3 3 7 8 8 8 7 5 4 4 4 5 6 7 7 8 8 7 7 7 7 8 7 6 6 5 5 5 5 5 5 5 5 5 5 5
3 5 4 5 5 4 4 4 3 1 4 4 4 3 4 6 6 7 7 7 6 5 5 4 4 6 6 6 6 6 7 7 7 8 8 8 7 7 7 6 6 6 5 6 5 6 6 5 5
2 5 5 5 4 4 4 3 3 4 7 6 6 7 6 7 7 7 7 6 6 5 5 4 4 5 6 6 6 6 5 5 6 7 7 7 6 5 5 5 5 5 5 5 5 4 5 5 6
4 5 5 6 6 5 5 6 4 7 7 4 3 5 6 7 6 5 6 6 6 6 5 3 4 5 5 5 5 6 5 5 6 7 7 7 5 3 4 4 4 4 4 4 4 4 4 4 4
4 5 7 7 6 5 5 6 3 8 4 2 4 6 6 7 7 6 6 6 6 6 6 4 4 5 5 4 4 5 6 6 6 6 6 7 6 5 4 3 3 3 4 4 4 4 3 3 3
3 4 7 5 4 3 2 6 7 8 3 3 4 5 5 5 7 8 8 7 6 6 6 5 4 4 5 4 4 5 5 6 5 5 6 6 6 6 5 3 2 3 3 4 4 4 4 3 3
2 2 4 5 2 2 3 7 9 4 3 4 4 4 5 5 6 6 6 6 6 6 6 5 5 5 4 4 4 5 5 6 5 5 5 6 6 6 5 3 2 3 4 4 2 2 3 3 3
2 3 5 6 3 2 3 7 8 3 4 5 5 5 5 5 4 4 5 6 7 7 6 5 5 5 5 4 4 4 5 4 5 5 5 5 6 6 5 4 3 4 4 3 2 2 2 2 2
4 4 5 5 4 2 5 9 9 5 4 6 5 5 5 6 6 5 6 6 6 6 6 6 5 4 5 4 3 3 3 3 4 4 4 4 5 5 5 3 4 4 3 2 2 2 2 1 1
5 6 8 7 5 3 6 10 10 6 4 5 5 5 5 5 4 5 6 6 6 5 6 6 5 4 4 3 3 2 2 1 2 2 4 4 4 5 5 3 3 3 3 2 2 2 2 2 2
4 6 7 6 4 3 6 10 8 5 5 6 7 7 6 5 4 5 5 5 6 6 5 5 5 4 4 3 3 2 2 1 1 1 2 3 4 4 4 3 2 2 2 2 2 2 2 1 2
4 4 5 6 6 3 3 7 6 5 3 3 5 6 6 8 8 8 6 5 5 5 5 6 5 5 4 4 3 4 3 2 1 1 1 1 3 4 4 4 3 2 2 2 2 2 2 1 1
5 5 5 4 3 4 1 4 7 4 4 4 5 6 7 7 7 7 7 6 6 5 4 5 5 5 4 5 4 5 4 2 2 2 1 0 2 3 3 3 3 3 2 2 2 2 2 3 1
5 5 4 3 1 3 1 1 7 3 4 6 6 7 7 8 8 8 8 8 6 5 5 4 5 4 4 4 5 5 3 2 2 2 2 1 1 1 3 3 3 2 2 3 2 2 2 2 2
4 4 3 3 2 2 3 3 6 4 6 5 6 7 8 8 8 7 6 6 5 4 4 4 5 4 4 5 5 5 5 4 3 2 2 1 1 0 1 3 3 3 2 2 3 2 2 2 2
4 4 4 5 4 4 3 2 7 7 6 6 6 7 7 8 8 7 7 8 7 6 6 5 6 4 4 5 5 5 6 6 6 4 4 3 2 2 3 2 2 2 3 3 2 2 2 2 3
2 3 3 1 3 5 4 4 7 6 4 3 3 4 5 6 7 8 9 9 8 8 7 7 7 6 5 5 5 5 5 4 4 4 4 4 4 3 3 3 3 3 3 2 2 2 2 2 3
1 0 3 3 2 3 5 6 7 2 3 2 1 3 5 7 7 8 8 8 8 9 8 8 8 6 6 6 5 4 4 4 4 4 3 3 3 3 3 3 3 3 3 2 2 2 3 3 3
2 2 3 2 1 4 6 5 5 5 5 4 3 4 5 5 5 6 7 7 7 7 7 6 7 7 6 5 5 4 4 4 4 4 4 4 4 3 3 3 3 2 2 2 2 2 3 3 3
1 1 1 2 2 2 4 7 5 5 4 4 5 4 4 5 6 6 6 7 7 6 6 6 6 5 5 5 4 4 4 4 4 4 4 4 4 4 4 4 3 3 3 3 3 4 4 4 4
3 3 4 1 3 2 3 7 6 3 3 2 3 3 3 3 4 4 5 5 5 6 6 6 6 6 5 5 5 4 4 3 4 4 4 4 4 3 4 4 4 4 4 4 4 5 5 5 5
Wind_Direction
335 335 21 53 60 60 231 243 239 275 284 267 270 114 122 134 163 177 139 131 134 147 150 147 143 139 137 134 131 126 122 122 120 116 112 108 104 103 100 97 95 94 93 92 89 85 81 79 78
333 349 45 62 110 186 253 238 232 238 225 246 14 70 90 92 81 108 114 136 137 141 144 144 140 137 136 135 133 129 126 124 122 118 114 112 108 103 102 98 96 94 92 92 90 87 83 80 77
335 33 77 86 152 193 219 235 232 266 279 296 22 34 101 141 119 130 148 140 127 128 137 141 139 136 134 135 133 130 128 125 123 120 116 112 110 105 101 98 95 93 93 92 91 87 83 78 73
35 41 60 98 220 225 222 258 270 287 325 15 67 40 23 22 150 145 138 132 125 122 131 140 138 136 132 132 132 131 128 125 122 122 118 114 110 105 102 97 94 94 94 93 90 87 82 75 69
57 75 80 243 246 253 259 283 302 308 318 347 56 97 337 338 97 122 128 131 129 128 128 137 137 135 132 129 129 129 128 126 123 123 120 117 111 106 101 96 93 92 91 91 90 87 81 73 65
52 70 128 231 253 272 281 290 312 307 294 334 68 107 202 347 104 124 124 124 131 131 128 136 137 134 131 127 128 127 128 128 126 125 126 122 116 111 104 99 95 90 87 87 83 84 77 72 59
105 110 185 225 257 272 283 302 271 272 277 253 160 134 196 209 138 129 120 117 116 121 118 121 132 133 129 126 125 125 126 130 130 128 128 124 117 113 107 103 99 94 90 87 82 78 75 64 57
129 115 204 240 235 263 291 323 282 263 262 265 130 154 201 211 157 118 110 106 102 110 117 117 123 128 127 128 129 126 128 129 133 133 130 127 123 117 110 106 100 94 89 83 76 70 70 63 57
93 94 220 229 219 259 299 324 313 299 275 351 332 221 215 162 138 120 112 105 99 116 122 129 129 132 133 133 131 126 124 123 119 122 125 122 118 117 110 104 99 93 83 73 62 57 56 61 56
106 173 230 237 228 254 290 300 297 327 327 328 335 348 127 143 139 138 141 138 137 146 144 140 143 142 136 131 124 116 113 110 102 103 116 116 112 111 103 96 90 88 79 64 52 51 48 54 54
167 202 241 260 258 259 276 286 285 261 271 253 249 215 169 162 152 149 151 148 154 153 142 140 143 145 134 123 123 113 107 102 96 96 107 109 100 94 86 76 70 68 64 51 42 44 46 60 69
229 249 245 261 268 263 254 267 286 242 250 252 227 191 179 179 175 168 161 157 149 139 136 147 138 133 131 127 125 120 113 106 99 97 103 104 92 86 83 76 70 63 56 49 44 45 51 64 69
251 266 269 266 271 261 257 255 264 268 269 261 217 188 195 194 187 170 155 149 142 136 133 134 128 127 133 131 132 123 120 117 112 104 101 107 102 107 94 78 68 56 54 57 50 49 52 56 60
256 274 281 275 267 262 250 265 253 264 254 213 194 201 203 197 178 158 153 153 152 148 144 136 132 133 126 124 124 126 126 125 114 108 107 108 107 109 103 84 64 48 50 63 69 65 61 53 63
284 292 299 276 257 247 232 280 248 255 235 209 210 214 205 193 174 171 168 163 161 156 149 145 141 130 122 121 122 122 127 126 116 114 114 109 107 110 108 101 77 44 57 68 69 61 62 59 57
321 304 294 281 254 237 172 265 264 248 211 222 224 215 199 193 180 172 162 160 156 151 150 151 145 132 126 122 120 124 129 123 119 117 114 111 109 114 108 104 84 60 65 62 73 66 64 51 49
359 297 274 291 259 223 202 257 272 241 210 227 222 212 199 185 172 172 163 161 154 151 151 148 137 140 136 124 118 118 117 115 119 116 112 112 111 114 111 109 90 82 69 57 73 73 76 59 39
280 286 278 273 273 266 254 266 280 278 224 223 217 208 201 188 187 174 160 157 153 149 151 150 141 151 137 120 104 94 94 96 109 115 118 117 113 116 107 109 102 96 93 72 74 84 64 71 49
253 269 283 276 273 268 254 269 277 269 237 226 216 201 197 194 179 156 151 151 149 148 151 156 149 163 148 138 134 131 134 118 101 122 125 123 120 116 106 109 100 99 112 116 106 99 78 44 42
253 276 288 293 292 265 268 276 273 251 228 218 207 201 192 173 153 156 155 155 159 161 160 159 158 162 164 158 149 144 133 135 131 109 112 134 130 123 121 113 119 108 109 96 93 90 102 52 52
274 249 275 291 317 318 304 305 285 274 234 215 203 195 183 180 176 171 167 168 162 168 174 174 170 169 166 147 125 106 88 75 82 83 70 150 144 130 128 132 130 123 124 135 129 119 119 122 21
276 246 258 289 339 309 359 301 293 278 276 235 211 196 193 186 180 176 172 171 177 182 183 169 166 164 163 151 151 150 153 165 189 179 171 155 158 146 146 147 140 141 142 147 157 141 141 144 153
256 283 274 268 242 308 329 240 290 295 259 246 226 209 204 195 187 185 183 181 179 174 174 166 163 164 163 159 162 155 151 156 141 124 141 168 256 157 159 161 152 154 154 164 160 151 151 153 164
276 341 357 29 70 316 255 196 285 263 246 249 227 215 209 198 190 188 180 167 169 169 165 163 167 173 171 165 165 165 164 159 155 169 180 198 245 246 205 186 177 179 180 180 178 168 161 162 166
33 49 20 5 3 272 283 216 258 264 251 230 224 217 210 193 186 184 177 177 182 182 179 176 174 182 181 174 178 181 178 175 181 190 193 193 209 224 227 209 198 199 204 202 187 177 182 180 182
330 110 129 238 268 291 314 253 262 277 282 254 218 204 194 188 190 192 190 188 190 192 188 185 186 189 187 188 193 190 184 184 193 197 195 201 211 218 214 209 206 209 207 202 187 189 200 190 198
10 107 173 156 263 279 286 291 304 318 332 323 249 186 197 198 194 196 197 195 196 197 197 194 193 194 194 195 192 193 191 191 198 201 197 206 217 217 204 202 205 210 208 199 182 204 215 201 208
181 164 82 91 327 300 302 292 275 294 296 294 270 226 219 213 204 202 200 199 201 200 197 193 193 198 198 194 194 197 197 197 196 188 200 209 216 213 199 203 204 209 213 202 193 214 220 212 222
210 171 143 148 181 212 294 284 244 263 264 257 261 254 233 220 213 208 207 203 197 191 189 190 193 194 194 194 194 191 198 199 193 196 208 210 212 206 206 208 205 210 218 213 209 224 222 224 237
205 204 158 171 267 215 236 272 282 274 282 254 270 272 254 223 211 205 199 192 189 191 192 193 194 194 198 193 188 194 194 192 198 210 213 206 208 211 212 207 208 216 219 216 215 227 226 225 234
Height
1522 1522 1523 1524 1528 1537 1536 1529 1522 1519 1517 1515 1513 1512 1513 1515 1518 1523 1519 1518 1520 1522 1525 1527 1529 1531 1533 1534 1535 1536 1537 1538 1539 1539 1540 1540 1540 1540 1541 1541 1541 1541 1541 1541 1541 1541 1541 1541 1541
1521 1522 1524 1524 1533 1541 1535 1525 1520 1516 1515 1514 1513 1512 1512 1514 1515 1515 1515 1518 1520 1522 1524 1526 1528 1530 1532 1533 1535 1536 1537 1538 1539 1539 1540 1540 1540 1540 1540 1541 1541 1541 1541 1541 1541 1541 1541 1541 1541
1521 1522 1524 1526 1533 1534 1528 1520 1518 1514 1514 1513 1513 1512 1513 1514 1514 1514 1515 1517 1520 1522 1524 1526 1528 1529 1531 1532 1534 1535 1536 1537 1538 1539 1539 1540 1540 1540 1540 1540 1540 1541 1541 1541 1541 1541 1541 1541 1540
1521 1523 1524 1530 1530 1526 1521 1518 1516 1514 1513 1512 1512 1513 1514 1514 1514 1514 1515 1517 1519 1522 1524 1526 1527 1529 1530 1532 1533 1534 1536 1537 1538 1538 1539 1539 1539 1540 1540 1540 1540 1540 1540 1540 1541 1541 1540 1540 1540
1521 1522 1528 1531 1527 1522 1519 1517 1515 1514 1513 1513 1512 1513 1513 1514 1513 1514 1515 1517 1518 1521 1523 1525 1527 1528 1530 1531 1532 1534 1535 1536 1537 1538 1538 1539 1539 1539 1539 1540 1540 1540 1540 1540 1540 1540 1540 1540 1540
1522 1523 1532 1532 1526 1521 1518 1517 1516 1514 1513 1512 1512 1512 1512 1513 1513 1514 1515 1516 1518 1520 1522 1524 1526 1527 1529 1530 1531 1533 1534 1536 1536 1537 1538 1538 1539 1539 1539 1539 1539 1540 1540 1540 1540 1540 1540 1540 1539
1523 1526 1529 1527 1525 1522 1519 1517 1516 1514 1512 1512 1511 1512 1511 1512 1512 1513 1514 1516 1517 1519 1521 1522 1524 1526 1528 1529 1531 1532 1533 1535 1536 1536 1537 1538 1538 1538 1538 1539 1539 1539 1539 1539 1539 1539 1539 1539 1539
1522 1526 1527 1527 1525 1522 1518 1516 1515 1513 1511 1511 1510 1510 1509 1510 1511 1512 1513 1515 1516 1518 1520 1521 1523 1525 1527 1528 1530 1531 1532 1533 1535 1535 1536 1537 1537 1538 1538 1538 1538 1538 1538 1538 1538 1539 1538 1539 1539
1523 1529 1529 1525 1522 1519 1516 1516 1514 1512 1511 1509 1509 1508 1507 1508 1509 1510 1512 1513 1515 1516 1518 1520 1522 1523 1525 1527 1528 1529 1531 1532 1533 1534 1535 1536 1537 1537 1537 1537 1537 1538 1538 1538 1538 1538 1538 1538 1538
1523 1529 1524 1519 1518 1517 1515 1515 1514 1511 1509 1508 1507 1506 1506 1506 1507 1508 1509 1510 1512 1514 1517 1518 1519 1521 1523 1525 1526 1528 1529 1531 1532 1533 1534 1535 1535 1536 1536 1536 1537 1537 1537 1537 1537 1537 1537 1537 1537
1522 1523 1519 1517 1515 1515 1514 1513 1512 1511 1509 1507 1505 1504 1504 1505 1505 1506 1507 1509 1510 1512 1515 1517 1518 1519 1521 1523 1525 1526 1528 1529 1530 1531 1533 1533 1534 1535 1535 1535 1536 1536 1536 1536 1536 1537 1536 1537 1537
1521 1519 1517 1515 1514 1513 1512 1511 1510 1508 1506 1504 1504 1503 1502 1503 1503 1505 1506 1508 1510 1511 1514 1516 1517 1517 1520 1522 1523 1524 1526 1528 1529 1530 1531 1532 1533 1533 1534 1534 1535 1535 1535 1535 1536 1536 1536 1536 1536
1520 1518 1515 1513 1512 1511 1510 1509 1508 1505 1503 1502 1502 1502 1502 1502 1503 1504 1506 1508 1509 1510 1512 1514 1516 1517 1519 1520 1522 1523 1524 1526 1527 1528 1529 1530 1531 1532 1532 1533 1533 1534 1534 1534 1535 1535 1535 1535 1535
1518 1516 1514 1511 1510 1509 1508 1507 1507 1502 1501 1500 1500 1500 1500 1501 1502 1503 1504 1506 1507 1509 1511 1513 1515 1516 1517 1519 1520 1521 1523 1524 1525 1526 1528 1529 1529 1530 1531 1531 1532 1532 1533 1533 1533 1534 1534 1534 1534
1517 1516 1513 1509 1508 1507 1508 1506 1503 1500 1500 1499 1499 1499 1499 1499 1501 1501 1503 1505 1506 1508 1510 1512 1513 1515 1516 1518 1519 1520 1521 1523 1523 1524 1526 1527 1528 1529 1529 1530 1531 1531 1532 1532 1532 1533 1533 1533 1533
1518 1518 1517 1509 1506 1506 1510 1507 1499 1499 1499 1497 1497 1497 1498 1498 1499 1501 1502 1504 1506 1507 1508 1511 1512 1514 1515 1516 1518 1519 1520 1520 1521 1523 1524 1525 1526 1527 1528 1528 1529 1530 1530 1531 1531 1531 1531 1532 1532
1521 1522 1517 1511 1506 1505 1506 1504 1497 1497 1497 1496 1495 1496 1496 1497 1498 1499 1501 1503 1505 1506 1507 1509 1511 1512 1514 1516 1517 1518 1519 1519 1520 1521 1522 1523 1524 1525 1526 1527 1528 1528 1529 1530 1530 1530 1530 1530 1531
1523 1521 1516 1512 1506 1505 1505 1501 1495 1494 1495 1494 1493 1494 1495 1495 1496 1498 1500 1502 1504 1505 1506 1508 1509 1511 1512 1514 1516 1516 1517 1518 1518 1519 1520 1521 1522 1523 1524 1525 1526 1527 1527 1528 1528 1529 1529 1529 1529
1519 1518 1516 1510 1505 1505 1503 1499 1494 1493 1493 1492 1492 1492 1493 1494 1496 1497 1499 1501 1503 1504 1505 1507 1508 1510 1511 1512 1513 1514 1515 1516 1517 1518 1519 1520 1521 1521 1522 1523 1524 1525 1526 1526 1527 1527 1527 1528 1528
1517 1517 1514 1509 1504 1504 1502 1498 1492 1490 1490 1489 1489 1490 1491 1492 1494 1496 1497 1499 1501 1502 1504 1505 1506 1508 1509 1510 1512 1513 1514 1514 1515 1516 1517 1518 1519 1520 1520 1521 1522 1523 1524 1524 1524 1525 1525 1526 1526
1515 1515 1513 1511 1506 1502 1503 1499 1492 1488 1487 1488 1488 1488 1489 1491 1492 1494 1496 1497 1499 1500 1502 1504 1505 1507 1508 1509 1510 1511 1512 1512 1513 1514 1515 1516 1517 1518 1518 1519 1520 1521 1522 1522 1522 1523 1523 1523 1524
1515 1510 1509 1509 1511 1512 1508 1510 1495 1490 1488 1486 1486 1487 1488 1489 1491 1492 1493 1495 1497 1500 1502 1502 1504 1506 1506 1507 1508 1509 1509 1510 1511 1513 1514 1514 1515 1516 1517 1518 1518 1519 1520 1520 1521 1521 1521 1521 1521
1512 1508 1508 1508 1510 1513 1510 1512 1501 1491 1489 1486 1484 1485 1486 1488 1489 1490 1492 1494 1496 1499 1500 1501 1503 1504 1505 1506 1507 1508 1508 1509 1510 1511 1512 1513 1513 1514 1515 1516 1516 1517 1517 1518 1518 1518 1519 1519 1519
1509 1509 1508 1510 1513 1514 1510 1512 1504 1494 1487 1483 1482 1482 1483 1485 1487 1489 1491 1493 1495 1497 1499 1499 1501 1502 1503 1504 1505 1506 1506 1507 1508 1508 1509 1510 1511 1511 1513 1513 1514 1514 1515 1516 1516 1516 1516 1516 1517
1511 1516 1521 1519 1522 1515 1509 1509 1501 1486 1482 1480 1480 1480 1481 1483 1485 1487 1489 1491 1493 1495 1496 1498 1499 1500 1501 1502 1503 1504 1505 1505 1506 1507 1508 1508 1509 1509 1510 1511 1511 1512 1513 1513 1513 1513 1513 1513 1514
1514 1516 1524 1524 1524 1519 1510 1507 1494 1483 1480 1478 1478 1478 1480 1481 1483 1485 1487 1489 1491 1493 1494 1496 1497 1498 1499 1500 1501 1502 1503 1504 1504 1505 1506 1506 1507 1507 1508 1508 1509 1509 1509 1509 1509 1510 1510 1510 1511
1514 1517 1517 1524 1523 1521 1512 1502 1489 1481 1480 1479 1478 1478 1479 1480 1481 1483 1485 1487 1489 1491 1492 1494 1495 1496 1497 1498 1499 1500 1501 1501 1502 1503 1503 1504 1504 1504 1505 1506 1505 1506 1506 1506 1506 1506 1507 1507 1507
1514 1515 1521 1522 1520 1517 1510 1505 1497 1485 1482 1480 1479 1478 1478 1479 1480 1482 1483 1485 1487 1489 1490 1492 1493 1494 1495 1496 1497 1498 1498 1499 1500 1500 1500 1501 1501 1501 1502 1502 1502 1502 1502 1502 1502 1503 1503 1503 1503
1514 1515 1517 1522 1522 1520 1517 1505 1488 1484 1482 1481 1479 1478 1477 1478 1479 1480 1481 1483 1485 1487 1488 1489 1490 1491 1492 1493 1494 1495 1496 1497 1497 1497 1497 1498 1498 1498 1499 1499 1499 1498 1498 1498 1499 1499 1499 1499 1499
1512 1512 1516 1521 1519 1521 1520 1507 1483 1482 1480 1479 1478 1478 1478 1478 1478 1479 1480 1481 1483 1484 1486 1487 1488 1489 1490 1491 1492 1492 1493 1494 1494 1494 1494 1495 1495 1495 1496 1496 1496 1495 1495 1495 1495 1495 1495 1495 1495